Regional Weather Roundup
Issued by NWS

Home | Current Version | Previous Version | Text Only | Print | Product List | Glossary On
Versions: 1 2 3 4 5 6 7 8 9 10 11 12 13 14 15 16 17 18 19 20 21 22 23 24 25 26 27 28 29 30 31 32 33 34 35 36 37 38 39 40 41 42 43 44 45 46 47 48 49 50
000
ASUS43 KDTX 251510
RWRMI
MICHIGAN HOURLY REGIONAL WEATHER ROUNDUP
NATIONAL WEATHER SERVICE DETROIT/PONTIAC MI
1100 AM EDT FRI JUL 25 2014

NOTE: "FAIR" INDICATES FEW OR NO CLOUDS BELOW 12,000 FEET WITH NO
SIGNIFICANT WEATHER AND/OR OBSTRUCTION TO VISIBILITY.

MIZ047>049-052>055-059>063-066>070-074>076-081>083-251600-
SOUTHEAST LOWER MICHIGAN

CITY           SKY/WX    TMP DP  RH WIND       PRES   REMARKS
ADRIAN         PTSUNNY   70  52  52 SW13      30.11F
ALMA           MOSUNNY   68  50  52 SW12      30.06F
ANN ARBOR      CLOUDY    70  53  54 SW10      30.09F
BAD AXE        SUNNY     71  52  50 W8        30.05F
DETROIT CITY   PTSUNNY   73  50  44 SW12G18   30.08F
DETROIT        CLOUDY    70  54  56 S10       30.09F
FLINT          CLOUDY    71  54  54 SW8       30.06F
GROSSE ILE     PTSUNNY   72  52  49 SW8       30.08F
HILLSDALE      PTSUNNY   70  57  63 SW5       30.09F
HOWELL         PTSUNNY   70  54  56 SW6       30.06F

CITY           SKY/WX    TMP DP  RH WIND       PRES   REMARKS
JACKSON        MOSUNNY   71  55  56 SW9       30.07F
LAMBERTVILLE   CLOUDY    70  50  49 SW7       30.11F
LANSING        MOSUNNY   70  53  54 MISG      30.07F
LAPEER         NOT AVBL
MASON          MOSUNNY   70  54  57 SW7       30.07F
MONROE         CLOUDY    72  52  49 SW9       30.08F
MT. CLEMENS    PTSUNNY   71  52  51 SW12      30.06F
PONTIAC        CLOUDY    68  52  56 SW12      30.07F
PORT HOPE        N/A     72  52  49 SW10      30.03F
PORT HURON     MOSUNNY   68  55  64 SW5       30.07F
TRI CITIES     CLOUDY    69  55  60 SW10      30.06F
YPSILANTI      CLOUDY    74  52  46 SW14      30.10F
$$
MIZ043>046-050>051-056>058-064>065-071>073-077>080-251600-
SOUTHWEST LOWER MICHIGAN

CITY           SKY/WX    TMP DP  RH WIND       PRES   REMARKS
BATTLE CREEK   PTSUNNY   70  54  56 SW8       30.07F
BENTON HARBOR  CLOUDY    68  56  65 VRB6      30.05F
BIG RAPIDS     MOSUNNY   70  52  53 W8        30.04F
COLDWATER      PTSUNNY   71  56  60 SW8       30.08F
HOLLAND        PTSUNNY   70  57  63 S6        30.05F
GRAND RAPIDS   PTSUNNY   69  54  58 SW7       30.06F
KALAMAZOO      PTSUNNY   69  55  60 VRB6      30.06F
MARSHALL       PTSUNNY   69  56  62 W8        30.07F
MUSKEGON       PTSUNNY   69  55  60 SW8       30.03F
$$
MIZ016>042-251600-
NORTHERN LOWER MICHIGAN

CITY           SKY/WX    TMP DP  RH WIND       PRES   REMARKS
ALPENA         SUNNY     71  51  49 SW8       29.99F
BEAVER ISLAND  SUNNY     68  55  63 SW15G21   29.96S
BELLAIRE       PTSUNNY   67  51  57 S7        29.98F
CADILLAC       PTSUNNY   67  53  61 SW12      30.03F
CHARLEVOIX     SUNNY     70  54  56 SW12G17   29.99F
FRANKFORT      CLOUDY    67  53  59 S7        29.99F
GAYLORD        PTSUNNY   67  50  54 SW16      30.00F
GRAYLING       MOSUNNY   73  51  46 SW8G17    30.02F
HARBOR SPRINGS MOSUNNY   68  52  55 SW6       29.97F
HOUGHTON LAKE  MOSUNNY   70  52  52 W9        30.03F
MANISTEE       CLOUDY    66  54  63 SW7       30.01F
OSCODA         SUNNY     74  47  38 SW16      30.01F
PELLSTON       PTSUNNY   67  52  58 SW9G18    29.97F
TRAVERSE CITY  MOSUNNY   71  51  49 W8        29.97F
$$
MIZ007>008-015-251600-
EASTERN UPPER MICHIGAN

CITY           SKY/WX    TMP DP  RH WIND       PRES   REMARKS
KINROSS        SUNNY     70  55  60 W13G18    29.95S
MACKINAC ISLAN PTSUNNY   67  53  60 SW16G24   29.95F
NEWBERRY       PTSUNNY   68  56  65 S12G20    29.93F
S. S. MARIE    PTSUNNY   70  54  56 SW8       29.93F
$$
MIZ004>006-011>014-085-251600-
CENTRAL UPPER MICHIGAN

CITY           SKY/WX    TMP DP  RH WIND       PRES   REMARKS
MANISTIQUE     SUNNY     65  56  72 S12       29.93F
ESCANABA       MOSUNNY   68  55  64 S9        29.91F
MENOMINEE      PTSUNNY   68  57  68 W6        29.91F
$$
MIZ001>003-009>011-084-251600-
WESTERN UPPER MICHIGAN

CITY           SKY/WX    TMP DP  RH WIND       PRES   REMARKS
IRON MOUNTAIN  PTSUNNY   72  58  61 SW13      29.89F
HOUGHTON       PTSUNNY   73  61  65 W12       29.85F
COPPER HARBOR    N/A     73  57  57 VRB6      29.84F
IRONWOOD       CLOUDY    66  63  88 S6        29.82F
$$

ABBREVIATIONS USED IN REMARKS
   TC - TEMPERATURE IN CELSIUS
  WCI - WIND CHILL INDEX
   HX - HEAT INDEX
  VSB - VISIBILITY




USA.gov is the U.S. government's official web portal to all federal, state and local government web resources and services.